Wind_Speed
2 7 10 10 13 15 16 10 4 7 10 11 13 10 15 14 16 19 19 18 18 18 24 27 28 30 30 28 27 26 24 26 26 25 25 24 25 24 23 30 35 38 39 38
2 9 13 12 13 9 8 9 4 7 6 8 9 7 11 16 12 15 14 17 19 25 30 28 29 30 28 27 25 27 25 23 23 22 23 24 24 20 24 26 33 35 37 38
4 10 3 5 4 5 3 2 4 4 5 6 9 11 7 9 10 10 13 14 17 21 24 28 31 31 29 27 27 24 23 24 21 21 20 20 21 27 28 28 30 36 36 38
2 0 3 6 3 4 3 3 4 3 7 7 6 7 6 5 4 9 13 14 17 22 26 29 31 28 27 25 25 21 18 19 19 20 21 21 24 28 28 25 30 33 35 38
3 2 3 2 4 2 3 4 4 4 7 6 5 4 6 5 3 4 8 15 16 23 26 25 26 29 28 24 19 15 15 17 16 17 21 19 20 23 23 20 26 31 34 37
3 4 3 6 5 4 5 2 3 3 5 3 6 8 5 6 9 14 18 16 19 25 28 29 33 32 25 21 16 13 16 15 12 11 12 13 16 17 14 13 14 26 33 32
2 2 3 6 6 2 2 5 5 2 4 3 2 4 5 12 10 11 20 19 18 22 25 31 34 34 24 22 20 17 15 15 17 16 12 9 7 7 7 7 5 3 3 4
2 4 3 1 3 5 5 5 4 5 3 3 3 6 3 7 12 15 17 20 20 23 26 27 32 32 27 26 26 22 18 18 20 22 19 19 17 17 17 16 16 16 14 12
5 5 6 5 5 5 3 4 5 5 4 4 6 5 3 5 11 17 14 16 19 22 22 25 28 30 24 33 28 23 24 23 24 23 25 25 29 28 27 26 27 24 20 21
3 4 3 6 4 5 5 7 6 3 3 3 4 6 4 8 10 14 16 17 19 23 22 22 29 29 25 26 28 24 26 29 28 26 24 27 27 32 29 26 23 23 24 22
1 4 2 5 6 4 5 7 3 4 4 3 4 5 4 6 12 15 14 16 18 21 22 22 26 28 28 28 28 23 25 27 26 25 27 24 28 30 28 33 31 24 23 19
4 7 5 5 5 3 3 3 7 5 3 6 7 5 6 5 11 12 12 14 16 18 19 21 23 25 26 25 27 28 24 25 25 24 24 24 23 22 26 27 31 30 30 28
5 6 6 5 8 5 2 3 9 8 7 5 7 9 8 7 7 12 9 14 15 16 18 18 22 24 23 21 24 24 25 24 25 25 24 24 24 23 22 24 24 30 30 30
4 4 3 6 5 8 5 5 8 9 8 6 4 5 8 7 8 12 12 12 13 15 17 17 18 22 22 19 23 21 21 22 24 24 24 23 22 20 20 20 21 25 29 30
7 9 7 8 9 10 8 6 5 4 4 4 4 4 6 7 8 7 11 8 12 16 18 17 17 21 20 17 16 21 22 22 20 18 20 21 23 23 20 20 20 21 25 29
8 7 5 7 7 8 7 4 3 4 3 0 3 1 4 7 7 7 8 11 13 15 16 16 18 19 17 18 20 20 21 19 19 17 17 18 19 19 19 20 20 22 24 27
8 6 6 6 7 7 6 7 7 8 7 5 4 3 2 3 6 5 6 8 10 9 13 15 14 15 18 17 18 18 18 17 17 17 18 17 16 17 17 17 17 18 19 24
16 16 18 16 9 8 9 10 9 10 8 7 4 5 5 3 4 6 6 6 10 11 11 14 12 13 15 17 16 17 17 16 19 18 15 16 16 16 17 17 17 18 17 20
22 18 21 19 18 17 13 13 12 8 10 7 5 5 5 6 6 7 8 8 9 12 11 10 12 10 13 15 14 13 14 14 13 13 12 13 14 14 15 17 18 17 18 18
20 25 23 21 21 19 15 11 15 11 10 11 7 7 7 6 6 8 8 11 10 8 9 7 9 8 8 8 9 10 8 8 8 8 9 10 11 13 13 13 14 15 15 16
21 25 23 23 24 21 18 16 18 15 12 13 14 13 12 9 7 8 10 11 13 10 8 7 6 6 5 3 5 6 5 4 4 5 6 7 8 9 10 10 10 11 12 13
23 22 23 25 23 22 21 21 21 18 16 16 19 19 16 15 12 12 12 15 12 10 10 9 8 7 6 4 4 5 5 5 4 4 3 4 6 6 7 9 10 9 10 11
25 26 25 23 23 24 23 24 24 23 22 22 23 24 22 20 15 14 17 13 15 14 14 12 10 10 8 8 8 7 8 8 9 9 7 7 7 6 7 7 8 10 10 11
28 29 29 27 25 24 21 26 27 27 25 24 25 28 27 23 21 20 19 17 17 16 17 16 14 12 12 11 12 12 11 12 12 11 11 10 10 10 10 9 8 9 11 11
31 31 30 28 24 24 28 28 26 26 25 25 25 26 27 27 27 26 22 20 21 21 20 19 17 15 15 15 15 15 16 15 16 16 15 15 15 14 13 12 11 11 11 10
28 26 28 31 30 31 30 26 26 26 25 25 26 27 28 29 29 30 28 27 27 26 26 24 23 21 19 19 19 18 19 19 19 19 20 20 18 18 17 16 16 15 14 14
27 27 25 24 25 26 25 26 27 29 29 28 30 28 24 22 25 28 28 28 27 28 29 29 28 27 25 23 23 23 23 21 22 23 23 23 23 22 21 20 19 18 18 17
Wind_Direction
147 153 94 65 41 39 42 31 58 327 7 342 342 354 2 353 346 356 354 348 350 350 349 348 342 340 337 336 331 328 323 317 311 307 302 295 284 276 279 263 256 253 253 250
235 137 82 52 30 25 40 38 29 359 345 329 321 334 356 2 351 358 352 347 345 351 350 343 338 341 329 326 323 319 311 303 302 299 298 293 292 283 277 273 253 250 245 244
214 225 293 26 328 337 329 340 171 20 263 304 330 341 331 338 355 353 342 347 358 354 342 336 332 327 323 318 315 305 299 299 297 297 293 287 284 283 280 280 248 248 246 242
137 137 41 242 244 215 261 270 311 301 296 296 268 295 281 293 294 335 347 350 350 349 338 335 330 323 323 321 308 300 297 294 298 298 294 292 283 281 284 282 240 238 242 245
104 47 241 267 300 136 190 271 221 247 294 301 294 297 305 272 287 273 309 327 331 343 337 331 334 335 331 325 312 312 313 302 297 294 297 295 289 287 289 290 247 237 239 250
61 108 182 239 281 296 127 312 317 188 277 286 334 1 315 309 335 335 334 338 341 345 342 343 343 341 333 336 331 326 326 323 323 319 309 299 296 295 298 294 277 247 246 254
97 106 287 248 273 277 73 252 298 271 275 299 344 219 268 324 338 348 346 345 353 353 348 347 348 346 339 348 348 345 357 14 19 25 16 351 341 352 349 3 20 35 353 321
58 68 300 329 348 105 223 286 267 281 310 305 280 321 319 320 332 353 339 358 5 353 347 349 354 351 353 358 3 15 21 29 38 36 36 39 48 46 48 47 45 41 27 15
149 208 236 250 203 254 231 255 283 312 1 9 3 351 355 306 344 356 357 6 11 2 353 357 3 2 355 3 14 17 38 38 38 44 41 43 46 42 40 42 40 36 33 21
69 289 253 276 261 232 251 246 270 57 62 36 21 354 31 2 2 5 12 8 7 4 356 0 7 10 6 9 19 22 34 37 42 39 45 45 48 49 44 40 41 33 28 25
251 287 289 280 229 257 183 224 102 106 93 48 43 356 56 14 15 11 15 15 13 9 358 360 8 17 17 16 24 23 30 32 34 37 42 45 51 51 52 50 49 43 31 27
213 218 178 228 225 174 188 267 153 147 88 58 58 25 74 36 29 20 22 20 16 11 5 8 7 18 25 24 30 29 31 29 27 32 34 39 42 44 49 46 50 51 51 42
190 189 205 209 207 176 176 48 155 138 117 78 45 49 61 43 41 33 38 34 27 15 13 15 14 25 31 32 35 43 37 34 31 32 33 31 33 32 26 26 33 39 38 40
200 188 243 157 195 170 137 77 145 135 121 89 50 60 61 39 31 31 31 33 34 29 28 26 22 28 34 39 34 48 51 46 44 40 38 35 32 31 29 26 20 16 25 27
188 193 194 176 159 169 153 133 122 139 135 70 31 94 70 42 25 27 27 32 37 34 31 31 29 30 35 47 43 45 50 45 43 41 38 38 38 34 32 31 28 21 15 19
206 211 180 165 167 161 155 152 145 170 163 62 336 53 51 29 17 16 16 26 31 26 24 29 32 26 33 39 40 47 51 43 40 42 39 36 33 28 30 30 28 24 21 15
183 189 165 161 166 172 181 187 190 188 190 207 268 225 189 13 2 355 0 14 24 25 26 27 29 26 33 37 40 45 51 44 41 42 39 32 33 31 27 28 27 27 23 20
187 191 180 174 177 174 189 192 183 192 202 207 230 199 212 262 309 340 338 339 3 14 16 17 14 21 29 31 32 37 47 43 43 44 38 36 33 30 26 29 27 24 21 20
191 188 184 180 185 186 192 197 194 195 194 199 210 228 242 274 279 298 325 302 331 350 357 3 5 4 18 20 23 29 42 40 37 33 33 32 33 33 29 29 29 28 24 21
187 188 188 191 187 187 197 210 204 200 207 206 209 210 248 281 285 289 301 281 281 309 327 332 349 352 360 11 13 20 45 42 37 33 23 28 30 28 27 27 26 26 23 21
189 194 196 196 193 199 204 205 200 214 229 222 225 237 249 265 277 269 278 269 281 270 295 300 305 328 324 333 352 355 15 28 14 23 19 19 13 19 22 20 19 19 19 18
194 195 197 200 202 210 215 215 219 231 236 234 236 243 244 259 266 256 260 263 288 269 270 285 283 288 284 257 281 303 319 329 330 309 315 334 347 348 356 358 359 3 360 5
200 204 206 207 212 221 225 226 226 232 241 243 242 241 243 260 263 247 261 275 268 262 264 272 283 270 266 256 257 262 276 281 289 302 293 289 296 312 315 321 336 338 338 343
204 210 216 221 226 229 229 236 237 241 246 250 250 250 250 255 262 258 263 267 267 269 265 263 270 279 260 268 263 264 264 272 274 282 287 283 287 281 280 291 297 304 315 320
211 216 220 223 223 228 238 245 244 240 243 249 254 255 255 257 255 270 271 269 262 262 264 265 268 271 267 270 268 265 266 267 273 270 274 277 281 282 279 275 274 282 289 295
213 217 222 227 230 237 242 241 237 240 241 247 255 261 264 264 263 265 266 269 266 263 264 264 262 266 266 267 269 268 269 267 266 267 267 270 275 278 279 277 274 269 273 276
220 222 224 228 234 237 238 236 237 240 241 246 255 262 262 268 263 262 263 264 264 262 262 264 263 265 268 270 269 269 268 270 268 268 268 270 270 272 276 276 277 276 272 271
Height
928 912 903 904 904 897 896 896 901 901 895 891 885 885 877 879 870 856 854 852 846 837 829 827 826 818 814 812 809 807 804 803 802 801 801 801 800 800 802 801 802 803 803 805
919 897 892 897 902 900 898 902 905 897 892 887 884 879 874 871 873 868 867 859 849 833 829 830 825 817 818 812 809 806 804 802 800 798 797 796 795 795 796 796 795 796 796 796
910 899 884 899 913 908 907 906 921 909 908 892 883 878 876 873 869 872 870 860 846 843 843 837 829 824 818 812 809 807 802 798 797 794 792 791 790 789 788 787 788 787 787 788
901 896 931 914 908 909 909 910 907 903 898 895 891 883 878 876 873 867 860 856 856 854 847 839 832 828 820 812 809 806 801 796 792 789 787 785 784 782 781 779 777 778 779 780
914 907 917 898 906 908 905 909 907 906 897 892 885 883 879 874 872 870 868 866 861 856 850 845 837 826 817 812 810 801 796 794 790 787 783 779 777 775 774 771 769 770 770 772
925 927 944 918 904 895 900 901 894 900 896 896 886 884 883 874 871 869 865 861 856 852 846 839 831 824 817 812 806 800 798 792 786 781 778 775 773 770 768 766 762 764 763 765
923 919 913 909 899 890 902 914 895 894 893 891 893 890 880 875 871 869 863 858 855 851 846 839 831 823 816 811 805 799 793 786 782 778 776 774 770 767 764 761 759 759 761 763
915 932 929 897 892 905 904 894 892 889 887 888 886 881 878 875 871 867 862 858 855 851 846 841 833 825 818 810 803 797 792 789 784 780 778 774 770 767 763 760 759 759 760 761
925 932 910 900 901 894 893 892 889 887 885 883 882 880 878 875 872 867 864 862 859 855 849 844 838 829 822 813 807 804 798 793 788 784 782 779 774 771 768 767 764 764 767 765
910 906 900 892 891 891 888 889 887 885 884 883 882 879 878 876 873 870 867 863 860 856 851 846 840 833 828 821 812 807 801 795 792 790 788 786 782 777 778 776 775 774 768 769
901 894 892 890 888 884 885 884 884 884 884 883 882 880 879 878 875 871 869 866 862 858 853 848 843 836 830 825 818 811 806 802 799 794 792 791 789 789 787 787 784 783 782 779
911 891 891 889 884 883 883 882 883 884 884 883 882 881 880 879 877 873 871 868 865 861 856 851 846 840 834 829 822 817 812 809 807 804 801 798 796 796 795 794 791 790 786 785
885 883 883 881 882 881 881 881 882 883 882 882 881 880 879 879 878 875 872 869 866 863 859 854 849 844 839 834 829 824 820 817 813 810 807 805 803 801 799 798 796 792 790 787
876 878 879 879 881 880 880 880 882 882 882 882 881 880 878 878 876 874 871 869 867 864 859 855 851 847 842 837 833 829 826 823 820 818 815 813 811 809 808 804 800 796 793 789
873 873 874 875 878 879 879 880 881 882 881 880 880 879 878 877 875 873 871 869 866 863 860 856 853 848 845 841 837 833 829 827 825 823 820 819 817 815 812 809 806 803 798 792
869 871 873 875 877 878 879 880 881 881 881 879 878 877 876 875 874 872 870 868 864 862 860 857 854 851 846 842 838 835 832 831 829 826 825 823 820 819 816 813 809 806 802 798
867 869 871 873 874 876 876 877 878 878 879 878 877 877 876 875 874 872 870 867 864 862 860 857 854 852 848 844 840 838 835 834 832 829 827 827 824 823 820 816 813 810 807 804
857 860 863 865 869 871 873 873 874 875 875 875 874 874 873 872 871 870 868 866 864 862 859 856 854 851 848 845 842 840 837 835 833 832 831 829 827 826 823 818 815 812 810 807
852 855 858 861 864 866 868 869 870 871 872 873 872 872 871 870 869 868 867 865 863 860 859 856 854 852 849 846 844 841 839 838 837 836 835 833 830 828 825 821 818 815 813 810
848 852 854 857 860 862 864 865 867 868 869 869 869 869 869 868 867 866 865 863 862 860 858 856 855 852 850 848 846 844 842 841 839 838 836 834 832 829 827 824 822 819 816 813
843 847 850 853 856 858 859 861 863 864 864 865 865 864 864 863 863 862 861 860 858 857 856 855 853 851 850 848 847 845 843 841 840 837 835 833 831 829 827 825 822 820 817 814
839 842 846 849 851 853 854 856 857 858 859 859 859 859 859 858 858 857 857 856 855 854 853 852 851 849 848 847 845 844 842 841 839 837 835 833 831 829 827 824 821 819 816 814
834 838 841 844 845 847 849 850 851 852 852 853 853 853 853 852 853 853 851 850 850 849 848 848 847 846 845 844 842 841 840 838 837 836 834 832 830 828 825 823 821 818 815 813
828 831 834 837 839 842 843 843 845 845 846 846 846 846 847 846 846 845 844 844 844 844 843 843 842 842 841 840 839 838 836 835 834 833 831 829 827 825 823 821 818 816 815 812
822 825 828 831 833 834 835 836 837 838 839 839 840 840 840 840 840 838 838 838 838 838 837 837 836 836 835 835 834 832 831 830 829 827 826 825 823 821 819 818 816 814 812 809
816 819 821 823 824 825 827 829 830 831 833 833 833 833 832 832 832 831 832 832 831 831 830 830 829 829 828 828 827 826 825 823 823 822 820 819 818 817 815 814 812 811 809 807
810 812 814 817 817 818 820 821 821 821 822 822 822 823 824 824 823 822 822 822 822 821 821 821 822 822 821 820 819 818 817 817 816 814 814 813 812 811 809 808 807 806 804 802